User: anonymous   Login
Location: U-46 Planetarium
(42.0300°N, 88.2740°W)
Time: 09:40:45
(UTC-06:00)
Language:

Cosmos 2263 Rocket - Orbit

View from above orbital plane
View from above orbital plane
View from above satellite
View from above satellite

Ground track
Ground track

The orbit data is extracted from the following two-line orbital elements,

1 22803U 93059B   18050.76194356 +.00000056 +00000-0 +51845-4 0  9994
2 22803 070.9898 087.7391 0017096 000.5163 359.5975 14.16787534263090
Epoch (UTC): 19 February 2018 18:17:11
Eccentricity: 0.0017096
inclination: 70.9898°
perigee height: 824 km
apogee height: 848 km
right ascension of ascending node: 87.7391°
argument of perigee: 0.5163°
revolutions per day: 14.16787534
mean anomaly at epoch: 359.5975°
orbit number at epoch: 26309

The dashed part of the orbit path shows where the satellite is in the earth's shadow,  

DLR